Weather History for Dalhart, TX

Change the Weather History Date:

Tuesday, February 5, 2013

  Actual Average Record
Temperature  
Mean Temperature 43 °F 36 °F  
Max Temperature 61 °F 51 °F 76 °F (1963)
Min Temperature 24 °F 21 °F -6 °F (1989)
Degree Days  
Heating Degree Days 22 29  
Month to date heating degree days 114 145  
Since 1 July heating degree days 2680 3027  
Cooling Degree Days 0 0  
Month to date cooling degree days 0 0  
Year to date cooling degree days 0 0  
Moisture  
Dew Point 17 °F    
Average Humidity 44    
Maximum Humidity 68    
Minimum Humidity 19    
Precipitation  
Precipitation 0.00 in 0.02 in 0.10 in (2005)
Month to date precipitation 0.00 0.08  
Year to date precipitation 0.17 0.60  
Snow  
Snow 0.00 in 0.10 in 2.40 in (1982)
Month to date snowfall 0.0 0.7  
Since 1 July snowfall 4.5 11.2  
Snow Depth 0.00 in    
Sea Level Pressure  
Sea Level Pressure 29.96 in    
Wind  
Wind Speed 12 mph (North)    
Max Wind Speed 31 mph    
Max Gust Speed 37 mph    
Visibility 10 miles    
Events      
T = Trace of Precipitation, MM = Missing Value Source: NWS Daily Summary

Daily Weather History Graph

Daily Weather History Graph

Search for Another Location

Airport:

Trip Planner

Search our weather history database for the weather conditions in past years. The results will help you decide how hot, cold, wet, or windy it might be!

Date:

Astronomy

Feb. 05, 2013 Rise Set
Actual Time 7:47 AM CST 6:21 PM CST
Civil Twilight 7:20 AM CST 6:48 PM CST
Nautical Twilight 6:50 AM CST 7:18 PM CST
Astronomical Twilight 6:20 AM CST 7:48 PM CST
Moon 3:28 AM CST (2/5) 1:44 PM CST (2/5)
Length of Visible Light 11h 27m
Length of Day
10h 34m
Waning Crescent, 26% of the Moon is Illuminated
Feb 5
Waning Crescent
Feb 10
New
Feb 17
First Quarter
Feb 25
Full
Mar 4
Last Quarter

Hourly Weather History & Observations

Time (CST) Temp. Windchill Dew Point Humidity Pressure Visibility Wind Dir Wind Speed Gust Speed Precip Events Conditions
12:53 AM 37.0 °F - 16.0 °F 42% 29.89 in 10.0 mi Calm Calm - N/A   Clear
1:53 AM 30.9 °F 24.3 °F 17.1 °F 57% 29.89 in 10.0 mi SW 6.9 mph - N/A   Clear
2:53 AM 32.0 °F 25.6 °F 18.0 °F 56% 29.88 in 10.0 mi West 6.9 mph - N/A   Clear
3:53 AM 27.0 °F 21.6 °F 16.0 °F 63% 29.89 in 10.0 mi West 4.6 mph - N/A   Clear
4:53 AM 25.0 °F 20.7 °F 16.0 °F 69% 29.89 in 10.0 mi West 3.5 mph - N/A   Clear
5:53 AM 26.1 °F 18.4 °F 15.1 °F 63% 29.92 in 10.0 mi NNW 6.9 mph - N/A   Clear
6:53 AM 30.9 °F 21.2 °F 14.0 °F 50% 29.94 in 10.0 mi NNW 12.7 mph - N/A   Clear
7:53 AM 32.0 °F 22.1 °F 14.0 °F 48% 29.98 in 10.0 mi NNW 13.8 mph - N/A   Clear
8:53 AM 39.9 °F 31.1 °F 15.1 °F 36% 29.97 in 10.0 mi NNW 17.3 mph - N/A   Clear
9:53 AM 48.2 °F - 15.8 °F 27% 30.01 in 10.0 mi North 20.7 mph - N/A   Clear
10:53 AM 53.1 °F - 15.1 °F 22% 30.00 in 10.0 mi NNE 26.5 mph 31.1 mph N/A   Clear
11:53 AM 55.9 °F - 17.1 °F 22% 30.00 in 10.0 mi NE 28.8 mph 35.7 mph N/A   Clear
12:53 PM 59.0 °F - 18.0 °F 20% 29.99 in 10.0 mi NE 26.5 mph 34.5 mph N/A   Clear
1:53 PM 59.0 °F - 17.1 °F 20% 29.99 in 10.0 mi NE 23.0 mph 31.1 mph N/A   Clear
2:53 PM 60.1 °F - 17.1 °F 19% 29.96 in 10.0 mi ENE 24.2 mph 32.2 mph N/A   Clear
3:53 PM 60.1 °F - 18.0 °F 20% 29.96 in 10.0 mi ENE 18.4 mph - N/A   Clear
4:53 PM 59.0 °F - 17.1 °F 20% 29.96 in 10.0 mi ENE 19.6 mph - N/A   Clear
5:53 PM 55.9 °F - 18.0 °F 23% 29.97 in 10.0 mi East 11.5 mph - N/A   Clear
6:53 PM 45.0 °F 41.8 °F 18.0 °F 34% 30.01 in 10.0 mi East 5.8 mph - N/A   Clear
7:53 PM 46.0 °F 43.9 °F 19.0 °F 34% 30.01 in 10.0 mi ENE 4.6 mph - N/A   Clear
8:53 PM 42.1 °F - 17.1 °F 37% 30.01 in 10.0 mi Calm Calm - N/A   Clear
9:53 PM 37.0 °F - 17.1 °F 44% 30.00 in 10.0 mi Calm Calm - N/A   Clear
10:53 PM 34.0 °F 31.0 °F 17.1 °F 50% 29.99 in 10.0 mi West 3.5 mph - N/A   Clear
11:53 PM 37.0 °F 34.5 °F 19.0 °F 48% 29.96 in 10.0 mi South 3.5 mph - N/A   Clear